Location: Powder Track
(41.8531°N, 72.3584°W)
Time: 16:34:24
(UTC+00:00)

Transit 4A - Pass Details

Date: 06 August 2021
Orbit: 871 x 974 km, 66.8° (Epoch: 19 September)

Event Time Altitude Azimuth Distance (km) Brightness Sun altitude
Rises 13:27:24 0° 320° (NW) 3,486 10.5 39.0°
Reaches altitude 10° 13:30:08 10° 310° (NW) 2,554 9.9 39.5°
Maximum altitude 13:35:12 30° 251° (WSW) 1,544 9.0 40.4°
Drops below altitude 10° 13:40:21 10° 192° (SSW) 2,595 10.4 41.4°
Sets 13:43:09 0° 182° (S) 3,551 11.1 41.9°
